Hillsdale, MI

3:02 AM EST on November 17, 2019 (GMT -0500)
Hillsdale Municipal

Weather History for KJYM - September, 2019

Change the Weather History Date:

Tuesday, September 17, 2019

  Actual Average Record
Temperature  
Mean Temperature 66 °F -  
Max Temperature 74 °F 71 °F 92 °F (1955)
Min Temperature 58 °F 50 °F 28 °F (1959)
Growing Degree Days 16 (Base 50)    
Moisture  
Dew Point 59 °F    
Average Humidity 87    
Maximum Humidity 97    
Minimum Humidity 60    
Precipitation  
Precipitation 0.00 in - - ()
Sea Level Pressure  
Sea Level Pressure 30.19 in    
Wind  
Wind Speed 4 mph ()    
Max Wind Speed 9 mph    
Max Gust Speed -    
Visibility 7.6 miles    
Events Fog    
Averages and records for this station are not official NWS values.
T = Trace of Precipitation, MM = Missing Value Source: Averaged Metar Reports

Daily Weather History Graph

Daily Weather History Graph

Search for Another Location

Airport or City:

Astronomy

Sep. 17, 2019 Rise Set
Actual Time 7:20 AM EDT 7:44 PM EDT
Civil Twilight 6:52 AM EDT 8:12 PM EDT
Nautical Twilight 6:19 AM EDT 8:45 PM EDT
Astronomical Twilight 5:45 AM EDT 9:19 PM EDT
Moon 9:44 PM EDT 10:26 AM EDT
Length of Visible Light 13h 20m
Length of Day
12h 24m
Waning Gibbous, 89% of the Moon is Illuminated
Sep 17
Waning Gibbous
Sep 21
Last Quarter
Sep 28
New
Oct 5
First Quarter
Oct 13
Full

Hourly Weather History & Observations

Time (EDT) Temp. Dew Point Humidity Pressure Visibility Wind Dir Wind Speed Gust Speed Precip Events Conditions
12:17 AM 61.7 °F 60.1 °F 94% 30.14 in 10.0 mi ENE 5.8 mph - N/A   Clear
12:35 AM 62.8 °F 61.0 °F 94% 30.14 in 10.0 mi ENE 4.6 mph - N/A   Clear
12:55 AM 62.2 °F 60.6 °F 94% 30.14 in 10.0 mi ENE 3.5 mph - N/A   Clear
12:56 AM 62.2 °F 60.4 °F 94% 30.14 in 10.0 mi ENE 3.5 mph - N/A   Clear
1:15 AM 61.7 °F 60.1 °F 94% 30.14 in 10.0 mi ENE 3.5 mph - N/A   Clear
1:20 AM 60.8 °F 59.4 °F 95% 30.14 in 7.0 mi ENE 3.5 mph - N/A   Clear
1:38 AM 60.6 °F 59.4 °F 96% 30.15 in 5.0 mi Calm Calm - N/A   Clear
2:15 AM 60.1 °F 59.2 °F 97% 30.16 in 3.0 mi ENE 3.5 mph - N/A   Clear
2:35 AM 59.5 °F 58.6 °F 97% 30.16 in 1.2 mi ENE 3.5 mph - N/A   Mist
2:36 AM 59.5 °F 58.6 °F 97% 30.16 in 1.2 mi ENE 3.5 mph - N/A   Mist
2:59 AM 59.0 °F 58.1 °F 97% 30.16 in 1.2 mi ENE 3.5 mph - N/A   Scattered Clouds
3:17 AM 61.0 °F 60.1 °F 97% 30.16 in 1.0 mi ENE 5.8 mph - N/A   Overcast
3:35 AM 61.9 °F 61.2 °F 97% 30.16 in 0.5 mi ENE 5.8 mph - N/A Fog Fog
3:55 AM 62.1 °F 61.3 °F 97% 30.16 in 1.2 mi ENE 4.6 mph - N/A   Overcast
4:15 AM 61.9 °F 61.2 °F 97% 30.16 in 3.0 mi ENE 4.6 mph - N/A   Overcast
4:20 AM 62.1 °F 61.2 °F 97% 30.16 in 3.0 mi ENE 6.9 mph - N/A   Overcast
4:38 AM 61.7 °F 61.0 °F 97% 30.17 in 4.0 mi NE 5.8 mph - N/A   Overcast
4:56 AM 61.7 °F 60.8 °F 97% 30.17 in 4.0 mi ENE 4.6 mph - N/A   Overcast
5:15 AM 61.7 °F 60.8 °F 97% 30.17 in 5.0 mi Calm Calm - N/A   Overcast
5:35 AM 61.7 °F 60.3 °F 95% 30.17 in 7.0 mi NE 3.5 mph - N/A   Overcast
5:36 AM 61.7 °F 60.3 °F 95% 30.17 in 7.0 mi Calm Calm - N/A   Overcast
5:59 AM 61.3 °F 59.9 °F 95% 30.17 in 7.0 mi East 4.6 mph - N/A   Overcast
6:17 AM 61.3 °F 60.1 °F 96% 30.17 in 5.0 mi NNE 3.5 mph - N/A   Overcast
6:35 AM 61.0 °F 59.4 °F 94% 30.18 in 7.0 mi NE 3.5 mph - N/A   Overcast
6:55 AM 61.0 °F 59.2 °F 94% 30.19 in 7.0 mi NE 6.9 mph - N/A   Overcast
6:56 AM 61.0 °F 59.2 °F 94% 30.19 in 7.0 mi NE 4.6 mph - N/A   Overcast
7:15 AM 61.0 °F 59.0 °F 93% 30.20 in 7.0 mi ENE 9.2 mph - N/A   Overcast
7:38 AM 60.8 °F 58.6 °F 93% 30.21 in 7.0 mi ENE 8.1 mph - N/A   Overcast
7:56 AM 60.8 °F 59.0 °F 94% 30.21 in 7.0 mi NE 5.8 mph - N/A   Overcast
8:15 AM 60.8 °F 58.6 °F 93% 30.21 in 7.0 mi East 5.8 mph - N/A   Overcast
8:35 AM 60.3 °F 58.5 °F 94% 30.22 in 5.0 mi East 5.8 mph - N/A   Overcast
8:36 AM 60.3 °F 58.5 °F 94% 30.22 in 7.0 mi ENE 5.8 mph - N/A   Overcast
8:59 AM 60.4 °F 58.6 °F 94% 30.23 in 7.0 mi Calm Calm - N/A   Overcast
9:17 AM 60.3 °F 58.6 °F 94% 30.23 in 5.0 mi East 3.5 mph - N/A   Overcast
9:35 AM 60.1 °F 58.5 °F 94% 30.23 in 5.0 mi ENE 5.8 mph - N/A   Overcast
9:55 AM 59.4 °F 58.1 °F 96% 30.23 in 4.0 mi East 6.9 mph - N/A   Overcast
10:15 AM 59.7 °F 58.3 °F 95% 30.23 in 4.0 mi ENE 3.5 mph - N/A   Overcast
10:20 AM 59.7 °F 58.3 °F 95% 30.23 in 4.0 mi ENE 4.6 mph - N/A   Overcast
10:38 AM 59.9 °F 58.3 °F 94% 30.23 in 5.0 mi NE 4.6 mph - N/A   Overcast
10:56 AM 59.9 °F 58.3 °F 94% 30.23 in 5.0 mi East 4.6 mph - N/A   Overcast
11:15 AM 60.1 °F 58.3 °F 94% 30.24 in 5.0 mi ENE 5.8 mph - N/A   Overcast
11:35 AM 60.6 °F 58.5 °F 93% 30.23 in 7.0 mi Calm Calm - N/A   Overcast
11:36 AM 60.8 °F 58.5 °F 92% 30.23 in 7.0 mi Calm Calm - N/A   Overcast
11:59 AM 62.1 °F 58.8 °F 89% 30.23 in 10.0 mi Calm Calm - N/A   Overcast
12:17 PM 63.0 °F 59.2 °F 87% 30.23 in 10.0 mi Calm Calm - N/A   Overcast
12:35 PM 63.7 °F 59.2 °F 85% 30.22 in 10.0 mi Calm Calm - N/A   Overcast
12:55 PM 65.1 °F 59.9 °F 83% 30.22 in 10.0 mi Calm Calm - N/A   Overcast
1:15 PM 66.2 °F 60.1 °F 81% 30.22 in 10.0 mi Calm Calm - N/A   Overcast
1:20 PM 66.0 °F 59.4 °F 79% 30.22 in 10.0 mi Calm Calm - N/A   Overcast
1:38 PM 67.8 °F 59.7 °F 75% 30.22 in 10.0 mi ENE 3.5 mph - N/A   Overcast
1:56 PM 68.5 °F 59.5 °F 73% 30.21 in 10.0 mi Calm Calm - N/A   Mostly Cloudy
2:15 PM 70.5 °F 60.4 °F 70% 30.20 in 10.0 mi ESE 3.5 mph - N/A   Scattered Clouds
2:35 PM 72.1 °F 61.0 °F 68% 30.20 in 10.0 mi ENE 3.5 mph - N/A   Mostly Cloudy
2:36 PM 72.1 °F 61.0 °F 68% 30.20 in 10.0 mi NE 3.5 mph - N/A   Mostly Cloudy
2:59 PM 72.5 °F 60.1 °F 65% 30.20 in 7.0 mi East 3.5 mph - N/A   Overcast
3:17 PM 70.9 °F 57.9 °F 63% 30.20 in 10.0 mi NNE 3.5 mph - N/A   Mostly Cloudy
3:35 PM 71.8 °F 59.5 °F 65% 30.20 in 10.0 mi NE 4.6 mph - N/A   Mostly Cloudy
4:15 PM 71.8 °F 59.0 °F 64% 30.18 in 10.0 mi ENE 4.6 mph - N/A   Scattered Clouds
4:38 PM 72.7 °F 57.9 °F 60% 30.18 in 10.0 mi ENE 5.8 mph - N/A   Clear
4:56 PM 73.6 °F 59.9 °F 62% 30.17 in 10.0 mi East 8.1 mph - N/A   Scattered Clouds
5:15 PM 73.2 °F 58.8 °F 61% 30.17 in 10.0 mi ESE 4.6 mph - N/A   Scattered Clouds
5:35 PM 72.9 °F 58.6 °F 61% 30.17 in 10.0 mi East 5.8 mph - N/A   Clear
5:36 PM 72.9 °F 58.8 °F 61% 30.17 in 10.0 mi East 6.9 mph - N/A   Clear
5:59 PM 72.5 °F 58.8 °F 62% 30.17 in 10.0 mi East 6.9 mph - N/A   Clear
6:17 PM 72.1 °F 59.2 °F 64% 30.17 in 10.0 mi East 4.6 mph - N/A   Clear
6:35 PM 71.4 °F 58.6 °F 64% 30.17 in 10.0 mi East 5.8 mph - N/A   Clear
6:55 PM 70.0 °F 59.0 °F 68% 30.16 in 10.0 mi East 4.6 mph - N/A   Clear
7:15 PM 68.2 °F 59.4 °F 73% 30.16 in 10.0 mi East 4.6 mph - N/A   Clear
7:19 PM 67.6 °F 59.5 °F 75% 30.16 in 10.0 mi East 4.6 mph - N/A   Clear
7:38 PM 66.0 °F 59.0 °F 78% 30.17 in 10.0 mi East 3.5 mph - N/A   Clear
7:56 PM 64.6 °F 59.4 °F 83% 30.17 in 10.0 mi East 3.5 mph - N/A   Clear
8:15 PM 61.7 °F 58.8 °F 90% 30.16 in 10.0 mi East 3.5 mph - N/A   Clear
8:35 PM 60.8 °F 57.9 °F 90% 30.17 in 10.0 mi Calm Calm - N/A   Clear
8:36 PM 60.6 °F 57.9 °F 91% 30.17 in 7.0 mi Calm Calm - N/A   Clear
8:59 PM 60.3 °F 57.7 °F 91% 30.18 in 7.0 mi Calm Calm - N/A   Clear
9:17 PM 59.2 °F 57.4 °F 94% 30.17 in 7.0 mi Calm Calm - N/A   Clear
9:35 PM 58.3 °F 56.5 °F 94% 30.18 in 7.0 mi East 5.8 mph - N/A   Clear
9:55 PM 62.1 °F 59.0 °F 90% 30.18 in 10.0 mi ESE 4.6 mph - N/A   Clear
9:56 PM 62.1 °F 58.8 °F 89% 30.18 in 10.0 mi ESE 3.5 mph - N/A   Clear
10:15 PM 61.0 °F 58.1 °F 90% 30.18 in 10.0 mi ESE 4.6 mph - N/A   Clear
10:20 PM 61.0 °F 58.3 °F 91% 30.18 in 10.0 mi ESE 4.6 mph - N/A   Clear
10:38 PM 61.9 °F 58.8 °F 90% 30.18 in 10.0 mi ESE 4.6 mph - N/A   Clear
10:56 PM 62.1 °F 59.0 °F 90% 30.18 in 10.0 mi East 5.8 mph - N/A   Clear
11:15 PM 61.5 °F 59.0 °F 91% 30.18 in 10.0 mi East 4.6 mph - N/A   Clear
11:35 PM 61.5 °F 59.0 °F 91% 30.18 in 10.0 mi ESE 5.8 mph - N/A   Clear
11:36 PM 61.5 °F 59.0 °F 91% 30.18 in 10.0 mi ESE 5.8 mph - N/A   Clear
11:59 PM 61.5 °F 59.4 °F 93% 30.18 in 10.0 mi ESE 5.8 mph - N/A   Clear